Tracking 20475 objects as of 27-Feb-2020
HD Live streaming from Space Station
objects crossing your sky now

COSMOS 1341

Track COSMOS 1341 now!
COSMOS 1341 is classified as:


NORAD ID: 13080
Int'l Code: 1982-016A
Perigee: 2,645.0 km
Apogee: 37,735.6 km
Inclination: 67.5 °
Period: 718.0 minutes
Semi major axis: 26561 km
RCS: 8.091 m2 (large)
Launch date: March 3, 1982
Source: Commonwealth of Independent States (former USSR) (CIS)
Launch site: PLESETSK MISSILE AND SPACE COMPLEX (PKMTR)
aabbcc
Your satellite tracking list
Your tracking list is empty




NASA's NSSDC Master Catalog

Two Line Element Set (TLE):
1 13080U 82016A   20056.98682329 +.00000227 +00000-0 +00000-0 0  9990
2 13080 067.5096 153.3547 6605573 017.8411 357.2419 02.00552870188556
Source of the keplerian elements: AFSPC